Preview of NWS' New Version of Forecast
This preview is not operational and should not be used for support decisions.

Regional Weather Roundup (RWR)

Issued by National Weather Service (NWS)

                            
000
ASUS43 KTOP 211559
RWRKS 

WEATHER ROUNDUP FOR KANSAS
NATIONAL WEATHER SERVICE GOODLAND KS
1100 AM CDT WED AUG 21 2019

NOTE:  "FAIR" INDICATES FEW OR NO CLOUDS BELOW 12,000 FEET WITH NO
SIGNIFICANT WEATHER AND/OR OBSTRUCTIONS TO VISIBILITY.

KSZ001>006-013>018-027>032-041>047-211700-
NORTHWEST KANSAS
  
CITY           SKY/WX    TMP DP  RH WIND       PRES   REMARKS
HAYS           LGT RAIN  68  65  90 E15       29.77F                  
HILL CITY      SUNNY     72  68  87 E9        30.06F                  
RUSSELL        LGT RAIN  69  65  86 SE14      30.06S                  
$$

KSZ061>065-074>080-084>089-211700-
SOUTHWEST KANSAS
  
CITY           SKY/WX    TMP DP  RH WIND       PRES   REMARKS
DODGE CITY     SUNNY     73  64  73 E20G28    30.08R                  
GARDEN CITY    SUNNY     78  63  59 E18       30.06R                  
GREAT BEND     LGT RAIN  71  65  81 NE8       30.07F                  
LIBERAL        SUNNY     89  63  41 S15       30.03R                  
$$

KSZ066>073-081>083-090>101-211700-
SOUTHEAST KANSAS
  
CITY           SKY/WX    TMP DP  RH WIND       PRES   REMARKS
CHANUTE        SUNNY     87  73  62 SE8       30.05S                  
COFFEYVILLE    SUNNY     84  74  71 E5        30.03F                  
HUTCHINSON     PTSUNNY   83  72  69 N10       30.10R                  
MEDICINE LODGE   N/A     88  68  51 N14G20    30.05R                  
NEWTON         MOSUNNY   80  70  71 SE7       30.09R                  
PARSONS        SUNNY     84  75  74 SE5       30.05F                  
WICHITA INTL   PTSUNNY   88  69  53 E9        30.05R                  
WICHITA JABRA  MOSUNNY   83  72  69 E9        30.06R                  
WICHITA MCCONL MOSUNNY   85  68  55 NE8       30.06R                  
WINFIELD       MOSUNNY   87  71  58 E8        30.05R                  
$$

KSZ007>012-019>026-033>040-048>060-102>105-211700-
NORTHEAST KANSAS
  
CITY           SKY/WX    TMP DP  RH WIND       PRES   REMARKS
CONCORDIA      LGT RAIN  72  70  93 E7        30.08F                  
EMPORIA        SUNNY     80  70  71 E6        30.05R                  
LAWRENCE       SUNNY     78  69  73 SE7       30.01S                  
MANHATTAN      SUNNY     76  70  82 NW6       30.07R                  
OLATHE IND     MOSUNNY   78  69  73 SE12      30.03F                  
OLATHE EXE     SUNNY     74  70  87 SE10      30.03F                  
SALINA         MOSUNNY   75  67  76 NW10      30.12R                  
TOPEKA BILLARD MOSUNNY   76  68  76 SE5       30.02R                  
TOPEKA FORBES  MOSUNNY   80  68  66 E7        30.03R                  
$$